| time (UTC) | temp F | wind direction | speed MPH | gust MPH | rain 1hr in | rain 24hr in | rain mn in | humidity % | barometer mb |
| 20260505001516 | 56 | 74 | 2.0 | 6.0 | 0.00 | 0.00 | 0.00 | 62 | 1010.9 |
| 20260505000035 | 56 | 158 | 1.0 | 6.0 | 0.00 | 0.00 | 0.00 | 60 | 1010.5 |
| 20260504234526 | 57 | 166 | 3.0 | 10.0 | 0.00 | 0.00 | 0.00 | 57 | 1010.3 |
| 20260504233006 | 58 | 181 | 1.0 | 7.0 | 0.00 | 0.00 | 0.00 | 53 | 1010.2 |
| 20260504231513 | 59 | 244 | 2.0 | 8.0 | 0.00 | 0.00 | 0.00 | 50 | 1010.0 |
| 20260504230025 | 60 | 29 | 0.0 | 7.0 | 0.00 | 0.00 | 0.00 | 47 | 1009.9 |
| 20260504224523 | 61 | 201 | 2.0 | 11.0 | 0.00 | 0.00 | 0.00 | 45 | 1009.8 |
| 20260504223026 | 62 | 131 | 1.0 | 8.0 | 0.00 | 0.00 | 0.00 | 43 | 1009.6 |
| 20260504221520 | 63 | 248 | 2.0 | 11.0 | 0.00 | 0.00 | 0.00 | 42 | 1009.6 |
| 20260504220015 | 64 | 181 | 3.0 | 12.0 | 0.00 | 0.00 | 0.00 | 42 | 1009.7 |
| 20260504214518 | 65 | 250 | 3.0 | 9.0 | 0.00 | 0.00 | 0.00 | 40 | 1009.7 |
| 20260504213027 | 66 | 216 | 2.0 | 11.0 | 0.00 | 0.00 | 0.00 | 38 | 1009.5 |
| 20260504211530 | 66 | 202 | 2.0 | 10.0 | 0.00 | 0.00 | 0.00 | 39 | 1009.4 |
| 20260504210010 | 66 | 113 | 3.0 | 12.0 | 0.00 | 0.00 | 0.00 | 38 | 1009.4 |
| 20260504204517 | 67 | 303 | 4.0 | 14.0 | 0.00 | 0.00 | 0.00 | 38 | 1009.4 |
| 20260504203020 | 67 | 191 | 3.0 | 14.0 | 0.00 | 0.00 | 0.00 | 38 | 1009.3 |
| 20260504201525 | 67 | 91 | 3.0 | 10.0 | 0.00 | 0.00 | 0.00 | 37 | 1009.2 |
| 20260504200026 | 68 | 15 | 3.0 | 11.0 | 0.00 | 0.00 | 0.00 | 35 | 1009.2 |
| 20260504194514 | 69 | 297 | 3.0 | 13.0 | 0.00 | 0.00 | 0.00 | 34 | 1009.3 |
| 20260504193021 | 69 | 143 | 1.0 | 10.0 | 0.00 | 0.00 | 0.00 | 36 | 1009.3 |
| 20260504191534 | 68 | 231 | 4.0 | 16.0 | 0.00 | 0.00 | 0.00 | 32 | 1009.4 |
| 20260504190027 | 68 | 307 | 5.0 | 12.0 | 0.00 | 0.00 | 0.00 | 31 | 1009.4 |
| 20260504184527 | 69 | 233 | 2.0 | 13.0 | 0.00 | 0.00 | 0.00 | 29 | 1009.6 |
| 20260504183014 | 69 | 169 | 3.0 | 12.0 | 0.00 | 0.00 | 0.00 | 31 | 1009.6 |
| 20260504181523 | 69 | 306 | 4.0 | 11.0 | 0.00 | 0.00 | 0.00 | 28 | 1009.8 |
| 20260504180024 | 68 | 216 | 4.0 | 13.0 | 0.00 | 0.00 | 0.00 | 29 | 1010.0 |
| 20260504174527 | 69 | 335 | 2.0 | 11.0 | 0.00 | 0.00 | 0.00 | 30 | 1009.9 |
| 20260504173033 | 69 | 243 | 3.0 | 10.0 | 0.00 | 0.00 | 0.00 | 29 | 1010.0 |
| 20260504171521 | 68 | 132 | 3.0 | 16.0 | 0.00 | 0.00 | 0.00 | 28 | 1009.9 |
| 20260504081511 | 37 | 311 | 0.0 | 0.0 | 0.00 | 0.00 | 0.00 | 82 | 1011.8 |
| 20260504050025 | 34 | 311 | 0.0 | 0.0 | 0.00 | 0.00 | 0.00 | 80 | 1011.8 |
| 20260504044526 | 34 | 311 | 0.0 | 0.0 | 0.00 | 0.00 | 0.00 | 80 | 1011.9 |
| 20260504043017 | 35 | 311 | 0.0 | 0.0 | 0.00 | 0.00 | 0.00 | 79 | 1012.0 |
| 20260504041518 | 35 | 311 | 0.0 | 0.0 | 0.00 | 0.00 | 0.00 | 78 | 1011.9 |
| 20260504040038 | 35 | 311 | 0.0 | 0.0 | 0.00 | 0.00 | 0.00 | 76 | 1011.6 |
| 20260504034524 | 35 | 311 | 0.0 | 0.0 | 0.00 | 0.00 | 0.00 | 76 | 1011.7 |
| 20260504033028 | 35 | 311 | 0.0 | 0.0 | 0.00 | 0.00 | 0.00 | 74 | 1011.5 |
| 20260504031516 | 36 | 311 | 0.0 | 0.0 | 0.00 | 0.00 | 0.00 | 74 | 1011.5 |
| 20260504030020 | 36 | 311 | 0.0 | 0.0 | 0.00 | 0.00 | 0.00 | 72 | 1011.4 |
| 20260504024522 | 36 | 311 | 0.0 | 0.0 | 0.00 | 0.00 | 0.00 | 71 | 1011.3 |
| 20260504023026 | 37 | 311 | 0.0 | 0.0 | 0.00 | 0.00 | 0.00 | 70 | 1011.2 |
| 20260504021528 | 37 | 311 | 0.0 | 0.0 | 0.00 | 0.00 | 0.00 | 67 | 1011.2 |
| 20260504020016 | 38 | 311 | 0.0 | 0.0 | 0.00 | 0.00 | 0.00 | 65 | 1011.2 |
| 20260504014525 | 38 | 311 | 0.0 | 0.0 | 0.00 | 0.00 | 0.00 | 63 | 1011.1 |
| 20260504013025 | 39 | 311 | 0.0 | 0.0 | 0.00 | 0.00 | 0.00 | 60 | 1011.0 |
| 20260504011526 | 41 | 311 | 0.0 | 0.0 | 0.00 | 0.00 | 0.00 | 58 | 1010.8 |
| 20260504010025 | 42 | 311 | 0.0 | 0.0 | 0.00 | 0.00 | 0.00 | 55 | 1010.4 |
| 20260504004539 | 43 | 311 | 0.0 | 1.0 | 0.00 | 0.00 | 0.00 | 52 | 1010.2 |
| 20260504003023 | 45 | 311 | 0.0 | 0.0 | 0.00 | 0.00 | 0.00 | 48 | 1010.1 |